Flag for Iran Weather past 2 weeks in Rafsanjan, Iran

Now
91 °F

Passing clouds.


Feels Like: 87 °F
Forecast: 55 / 93 °F
Wind: 23 mph from Northwest

Location: Kerman Airport

Current Time: Aug 23, 2014 at 5:01:39 PM

Latest Report: Aug 23, 2014 at 4:30 PM


Visibility: N/A

Pressure: 30.01 "Hg

Humidity: 6%

Dew point: 14 °F

Location of RafsanjanLocation

Historic Weather in Rafsanjan — Graph

°F

Rafsanjan temperature yesterday

Maximum temperature yesterday: 91 °F (at 4:30 PM)
Minimum temperature yesterday: 59 °F (at 6:30 AM)
Average temperature yesterday: 81 °F

Past Weeks' High & Low Weather Summary

 TemperatureHumidityPressure
High97 °F (Aug 8, 3:30 PM)37% (Aug 16, 6:30 AM)30.21 "Hg (Aug 16, 6:30 AM)
Low54 °F (Aug 23, 6:30 AM)0% (Aug 9, 3:30 PM)29.89 "Hg (Aug 8, 3:30 PM)
Average82 °F10%30.04 "Hg
* Reported Aug 8 3:30 PM — Aug 23 4:00 PM, Rafsanjan, Weather by CustomWeather, © 2014

Note: Actual official high and low records may vary slightly from our data, if they occured in-between our weather recording intervals... More about our weather records

Advertising

Rafsanjan weather history for previous 24 hours

 ConditionsComfort  
Time TempWeatherWind HumidityBarometerVisibility
4:00 PM
Aug 23
91 °FPassing clouds.14 mph7%30.01 "HgN/A
3:30 PM91 °FPassing clouds.16 mph7%30.04 "HgN/A
3:00 PM91 °FPassing clouds.14 mph7%30.04 "HgN/A
2:30 PM90 °FPassing clouds.9 mph6%30.07 "HgN/A
2:00 PM90 °FPassing clouds.5 mph6%30.07 "HgN/A
1:30 PM88 °FPassing clouds.7 mph7%30.07 "HgN/A
1:00 PM86 °FPassing clouds.7 mph7%30.09 "HgN/A
12:30 PM86 °FPassing clouds.No wind7%30.09 "HgN/A
12:00 PM84 °FPassing clouds.7 mph8%30.09 "HgN/A
11:30 AM84 °FPassing clouds.5 mph8%30.12 "HgN/A
11:00 AM82 °FSunny.No wind9%30.12 "Hg10 mi
10:30 AM81 °FSunny.5 mph9%30.12 "Hg10 mi
10:00 AM77 °FSunny.5 mph11%30.12 "Hg10 mi
9:30 AM77 °FSunny.5 mph11%30.12 "Hg10 mi
9:00 AM77 °FPassing clouds.5 mph11%30.12 "HgN/A
8:30 AM72 °FPassing clouds.7 mph13%30.12 "HgN/A
8:00 AM68 °FPassing clouds.7 mph12%30.12 "HgN/A
7:30 AM63 °FPassing clouds.7 mph15%30.12 "HgN/A
6:30 AM54 °FPassing clouds.9 mph21%30.09 "HgN/A
5:30 AM61 °FClear.5 mph16%30.07 "Hg10 mi
4:30 AM59 °FClear.7 mph17%30.07 "Hg10 mi
3:30 AM61 °FClear.5 mph16%30.07 "Hg10 mi
2:30 AM68 °FClear.5 mph11%30.07 "Hg10 mi
1:30 AM66 °FClear.5 mph12%30.07 "Hg10 mi
12:30 AM73 °FClear.7 mph9%30.07 "Hg10 mi
11:30 PM
Aug 22
73 °FClear.5 mph9%30.07 "Hg10 mi
10:30 PM77 °FClear.7 mph8%30.07 "Hg10 mi
9:30 PM81 °FClear.12 mph7%30.04 "Hg10 mi
8:30 PM82 °FSunny.14 mph6%30.01 "Hg10 mi
7:30 PM84 °FPassing clouds.12 mph5%30.01 "HgN/A
6:30 PM90 °FPassing clouds.12 mph4%29.98 "HgN/A
5:30 PM91 °FPassing clouds.12 mph3%29.98 "HgN/A
5:00 PM91 °FPassing clouds.12 mph3%29.98 "HgN/A
Weather by CustomWeather, © 2014

See weather overviewHow to use our weather pages